Regional Weather Roundup
Issued by NWS

Home | Current Version | Previous Version | Graphics & Text | Print | Product List | Glossary On
Versions: 1 2 3 4 5 6 7 8 9 10 11 12 13 14 15 16 17 18 19 20 21 22 23 24 25 26 27 28 29 30 31 32 33 34 35 36 37 38 39 40 41 42 43 44 45 46 47 48 49 50
000
ASUS45 KPSR 251410
RWRAZ

ARIZONA HOURLY REGIONAL WEATHER ROUNDUP
NATIONAL WEATHER SERVICE PHOENIX AZ
700 AM MST SAT MAR 25 2017

NOTE: FAIR INDICATES FEW OR NO CLOUDS BELOW 12,000 FEET WITH NO
SIGNIFICANT WEATHER AND/OR OBSTRUCTIONS TO VISIBILITY.

AZZ001>003-036-251500-
NORTHWEST ARIZONA

CITY           SKY/WX    TMP DP  RH WIND       PRES   REMARKS
BULLHEAD CITY  CLOUDY    63  32  31 CALM      29.96S
KINGMAN        CLOUDY    51  24  34 S5        30.02R
$$

AZZ004>008-015-016-018-251500-
NORTH CENTRAL ARIZONA

CITY           SKY/WX    TMP DP  RH WIND       PRES   REMARKS
GRAND CANYON   CLOUDY    31  30  96 CALM      30.12
WILLIAMS       CLOUDY    39  27  60 S7        30.12S WCI  34
PRESCOTT       CLOUDY    44  31  60 CALM      30.09F
FLAGSTAFF      CLOUDY    31  29  92 CALM      30.13S
PAYSON         PTCLDY    41  32  70 CALM      30.14R
PAGE           CLOUDY    47  33  58 W5        30.03F
$$

AZZ009>014-017-251500-
NORTHEAST ARIZONA

CITY           SKY/WX    TMP DP  RH WIND       PRES   REMARKS
WINSLOW        MOCLDY    38  31  76 E7        30.10S WCI  33
SAINT JOHNS    MOCLDY    27  18  69 CALM      30.12S
WINDOW ROCK    MOCLDY    29  23  78 CALM      30.16F
SHOW LOW       PTCLDY    32  27  80 CALM      30.13F
$$

AZZ023-251500-
GREATER PHOENIX AREA

CITY           SKY/WX    TMP DP  RH WIND       PRES   REMARKS
PHOENIX        MOCLDY    58  40  51 E7        30.00R
BUCKEYE        CLOUDY    48  41  76 N3        30.01S
GLENDALE       MOCLDY    55  43  62 CALM      30.03
LUKE AFB       CLOUDY    53  43  68 N3        30.00R
DEER VALLEY    CLOUDY    54  37  52 N6        30.02R
SCOTTSDALE     MOCLDY    56  40  55 CALM      30.02S
MESA-FALCON    CLEAR    N/A N/A N/A NE7       29.99S
MESA-GATEWAY   PTCLDY    52  39  62 SE7       30.02S
CHANDLER       CLEAR     54  41  62 CALM      30.02R
$$

AZZ027-028-251500-
SOUTHWEST MARICOPA COUNTY AND PINAL COUNTY

CITY           SKY/WX    TMP DP  RH WIND       PRES   REMARKS
CASA GRANDE    NOT AVBL
GILA BEND      MOCLDY    55  26  33 SE6       29.99F
$$

AZZ503-504-507>509-251500-
SOUTHEAST ARIZONA

CITY           SKY/WX    TMP DP  RH WIND       PRES   REMARKS
TUCSON         CLEAR     48  22  35 S7        30.08R
DAVIS-MONTHAN  PTCLDY    49  22  35 SE10      30.07R
RYAN FIELD     CLEAR     45  21  39 CALM      30.08R
NOGALES        CLEAR     39  19  44 E6        30.10R WCI  35
SIERRA VISTA   CLEAR     48  21  34 SE3       30.12S
DOUGLAS        CLEAR     33  17  51 W3        30.13R
SAFFORD        CLEAR     43  30  60 SE7       30.07S
$$

AZZ020-021-025-026-031-251500-
SOUTHWEST ARIZONA

CITY           SKY/WX    TMP DP  RH WIND       PRES   REMARKS
YUMA           CLOUDY    60  45  57 CALM      29.98R
$$

CAZ031-033-041-043-047-048-061-251500-
SOUTHERN CALIFORNIA

CITY           SKY/WX    TMP DP  RH WIND       PRES   REMARKS
DOWNTOWN L.A.  MOCLDY    55  50  83 CALM      30.11S
L.A. AIRPORT   MOCLDY    57  52  83 W10       30.11S
SAN DIEGO      MOCLDY    56  50  80 CALM      30.14R
BURBANK        CLEAR     52  46  80 W5        30.10S
ONTARIO        MOCLDY    50  46  86 CALM      30.11S
RIVERSIDE      CLEAR     49  47  93 W3        30.12R
PALM SPRINGS   CLEAR     61  44  53 VRB6      29.98R
EL CENTRO NAS  PTCLDY    61  25  25 W13       30.00R
IMPERIAL       CLEAR     60  36  40 W8        29.97S
BLYTHE         MOCLDY    61  37  41 CALM      29.96S
NEEDLES        CLOUDY    65  33  30 CALM      29.97R
$$

NVZ020-UTZ003-251500-
SOUTHERN NEVADA-UTAH

CITY           SKY/WX    TMP DP  RH WIND       PRES   REMARKS
LAS VEGAS      CLOUDY    61  33  35 SW21G31   29.92S
SALT LAKE CITY CLOUDY    47  42  83 NW12      30.02R
$$

NMZ009-TXZ055-251500-
NEW MEXICO-WEST TEXAS

CITY           SKY/WX    TMP DP  RH WIND       PRES   REMARKS
ALBUQUERQUE    CLOUDY    45  22  40 N3        30.16S
EL PASO        SUNNY     49  20  31 CALM      30.13S
$$


........................KEY........................
SKY/WX - SKY CONDITION/WEATHER
TMP    - TEMPERATURE IN FAHRENHEIT
DP     - DEW POINT IN FAHRENHEIT
RH     - RELATIVE HUMIDITY IN PERCENT
WIND   - DIRECTION AND SPEED IN MILES PER HOUR (MPH)
VRB    - VARIABLE WIND DIRECTION
PRES   - MEAN SEA LEVEL PRESSURE IN INCHES OF MERCURY
         F - FALLING PRESSURE   R - RISING PRESSURE
         S - STEADY PRESSURE
VSB    - VISIBILITY IN MILES
HX     - HEAT INDEX IN FAHRENHEIT
WCI    - WIND CHILL INDEX IN FAHRENHEIT
TC     - TEMPERATURE IN CELSIUS WHICH IS ALSO KNOWN AS
         TEMPERATURE IN CENTIGRADE
AFB    - AIR FORCE BASE
         LUKE AFB IS LUKE AIR FORCE BASE
         DAVIS-MONTHAN IS DAVIS-MONTHAN AIR FORCE BASE
NAS    - NAVAL AIR STATION
         EL CENTRO NAS IS EL CENTRO NAVAL AIR STATION
N/A    - NOT AVAILABLE




USA.gov is the U.S. government's official web portal to all federal, state and local government web resources and services.